Temperature
9 9 10 11 13 14 14 14 14 15 16 15 14 15 16 17 17 17 17 18 18 18 18 17 17 16 16 16 16 16 16 16 16 16 16 15 15 16 16 17 17 17 16 15
9 10 12 14 14 14 15 14 15 15 14 15 14 14 15 16 17 17 17 17 17 17 16 15 15 15 15 15 15 15 15 15 16 15 15 15 15 15 15 15 16 16 16 15
10 11 13 14 14 14 14 14 15 14 13 14 14 13 14 15 16 15 15 15 15 15 15 14 14 13 13 13 13 14 14 15 15 15 15 15 15 15 15 14 15 15 15 15
10 12 13 13 13 14 13 15 15 14 12 11 12 12 14 14 14 14 14 14 14 14 14 13 13 12 12 12 12 13 13 14 14 14 14 14 14 14 14 14 14 14 14 14
9 10 11 12 13 14 13 14 14 13 12 12 12 12 14 13 13 12 13 14 13 13 13 12 12 11 11 12 12 12 13 13 13 13 13 13 13 13 13 13 13 14 14 13
8 9 10 11 12 13 13 13 12 12 12 10 12 12 13 13 13 12 13 13 13 12 12 12 11 11 11 11 11 12 12 12 12 12 12 12 12 12 12 13 13 13 13 13
7 8 8 9 10 11 12 10 9 9 9 9 13 13 13 14 14 13 12 13 13 12 12 11 11 10 10 10 10 10 10 10 10 10 11 11 11 11 11 11 12 12 12 12
7 7 7 8 9 9 10 11 10 10 9 10 12 11 13 13 14 14 13 13 12 12 12 11 10 10 9 9 9 9 9 9 9 9 10 10 10 10 10 10 10 10 11 11
8 7 6 7 8 10 10 10 11 10 11 11 10 12 12 13 12 12 13 12 12 12 11 10 10 9 8 8 8 8 8 8 8 8 8 9 9 9 9 9 9 9 10 10
9 7 7 7 8 8 9 10 9 9 9 11 12 12 10 11 11 12 12 13 12 12 11 10 9 8 7 7 7 7 7 7 7 7 7 8 8 8 8 8 8 9 9 9
10 8 7 7 7 8 8 8 9 9 10 9 11 12 13 11 11 11 12 13 12 11 10 9 8 7 6 6 6 6 6 6 7 7 7 7 7 7 8 8 8 8 8 8
11 9 7 7 8 9 9 9 9 9 9 10 9 10 13 12 12 12 12 12 11 10 9 8 7 6 5 5 5 5 5 6 6 6 6 6 6 6 7 7 7 7 7 8
11 8 7 7 7 8 8 9 10 9 9 9 9 10 12 11 12 12 12 12 11 9 8 7 6 5 4 4 4 4 5 5 5 5 5 5 5 6 6 6 6 6 6 7
11 9 8 8 8 7 7 9 9 8 7 8 10 11 11 11 11 12 12 11 10 9 7 6 5 4 4 3 3 3 4 4 4 4 4 4 4 4 5 5 5 5 6 6
10 8 7 8 9 8 8 8 8 7 8 8 11 12 11 11 11 12 11 10 9 8 7 5 4 4 3 2 2 2 3 3 3 3 3 3 3 3 4 4 4 4 4 5
10 8 7 7 8 8 8 8 9 8 9 9 10 10 12 12 12 11 11 10 9 7 6 5 4 3 2 2 1 1 2 2 2 2 2 2 2 3 3 3 3 3 3 3
9 7 6 7 8 8 6 8 8 8 9 9 9 10 12 11 11 11 10 9 8 7 6 4 3 2 2 1 1 1 1 1 1 1 1 2 2 2 2 2 2 2 2 2
9 8 6 7 7 6 9 11 10 9 9 10 10 11 11 11 11 10 9 9 7 6 5 4 3 2 2 1 1 1 1 1 1 1 1 1 1 1 1 1 1 1 1 1
10 9 7 7 7 8 10 10 10 9 9 10 10 11 11 11 10 9 8 8 7 6 5 5 4 3 2 1 1 1 1 1 1 1 1 1 1 1 0 0 0 0 0 0
9 9 7 8 7 8 10 10 11 10 9 11 10 10 11 10 8 7 7 7 6 6 5 4 4 3 2 2 1 1 1 1 1 1 0 0 0 0 0 0 0 -0 -0 -0
7 7 7 7 7 8 10 10 10 8 9 10 11 11 10 9 8 8 7 6 6 6 5 4 4 3 3 2 2 2 1 1 1 1 1 0 0 0 0 0 -0 -0 -0 -1
7 7 7 7 7 7 9 9 9 9 10 10 10 10 9 9 8 7 7 6 6 5 5 5 4 4 3 3 2 2 2 2 1 1 1 1 0 0 -0 -0 -0 -0 -1 -1
8 8 8 8 8 10 10 10 10 10 9 9 9 9 9 8 8 7 6 6 6 6 5 5 5 4 3 3 3 2 2 2 1 1 1 1 0 0 -0 -0 -0 -1 -1 -1
9 10 9 9 10 10 10 10 9 9 9 9 9 9 8 8 8 7 6 6 6 6 5 5 5 4 4 3 3 2 2 2 1 1 1 1 0 0 -0 -0 -0 -1 -1 -1
9 9 8 9 10 10 10 10 9 9 8 8 8 8 8 8 7 7 7 6 6 6 5 5 5 5 4 4 3 3 2 2 1 1 1 1 0 0 0 -0 -0 -1 -1 -2
8 8 8 8 10 9 9 9 9 8 8 8 8 8 8 7 7 7 6 6 6 5 5 5 5 5 4 4 3 3 2 2 2 1 1 1 0 0 0 -0 -1 -1 -2 -2
Wind_Speed
9 9 14 18 18 11 13 14 14 13 9 12 11 10 10 8 8 8 9 8 7 4 3 5 6 5 5 4 4 5 4 4 2 3 4 5 7 8 8 8 12 14 14 13
8 12 15 14 15 13 8 12 13 8 8 7 7 10 10 9 8 7 7 6 4 1 4 5 4 5 5 6 6 5 5 5 5 3 3 3 4 5 7 8 10 15 15 15
8 8 14 14 14 13 9 7 8 8 6 2 3 7 12 8 5 2 2 3 2 1 3 5 5 6 6 6 6 6 6 6 6 5 3 3 3 3 4 6 8 11 15 15
5 5 12 12 12 11 8 5 3 9 7 5 8 5 9 11 8 7 6 5 4 4 5 5 5 5 5 4 4 5 6 6 5 5 4 5 4 5 6 6 6 8 11 13
4 4 10 13 11 9 4 3 3 6 5 4 7 5 4 10 9 9 8 7 7 6 5 5 5 3 4 5 4 5 6 6 5 5 5 5 6 6 5 6 7 7 8 10
3 2 1 2 2 4 6 7 6 1 2 4 8 8 5 8 11 11 9 9 8 7 6 5 5 3 4 4 4 5 6 6 5 6 6 6 6 7 7 8 7 6 6 6
3 3 3 2 6 4 7 8 5 4 4 6 8 7 5 8 13 13 11 9 8 6 5 4 5 4 5 5 5 6 6 6 7 7 7 7 7 7 7 8 7 7 6 5
5 4 1 1 3 5 7 6 3 5 7 5 4 6 1 8 12 12 10 9 6 5 5 5 5 4 5 5 6 6 7 7 7 7 7 7 7 5 5 6 7 7 6 6
5 4 2 2 1 3 5 4 2 3 3 4 6 5 5 7 8 9 8 8 7 5 6 5 5 5 5 6 6 6 7 7 8 8 8 8 8 7 7 7 7 6 6 6
5 6 4 3 2 2 1 1 3 2 2 3 7 9 9 13 11 9 9 8 7 6 5 5 5 5 5 5 5 7 7 7 8 8 8 8 8 8 8 7 7 7 7 7
6 6 6 5 6 8 5 3 4 3 3 2 2 1 2 16 13 11 9 7 6 6 6 5 4 4 4 5 6 7 7 7 7 8 8 8 8 9 9 8 8 8 7 7
3 5 4 3 2 1 4 6 6 4 4 3 2 1 3 11 10 9 7 6 6 7 5 4 4 4 5 6 6 6 6 7 7 8 8 8 8 9 9 9 9 8 8 8
4 6 6 3 2 4 4 6 6 2 0 3 2 2 4 9 9 7 6 5 5 7 6 4 4 4 5 5 5 5 6 7 7 7 8 8 9 9 9 9 10 10 9 9
1 3 2 3 2 7 6 8 8 6 4 4 5 5 6 7 8 7 7 6 6 7 6 5 3 4 5 5 5 6 6 7 7 7 8 8 8 9 9 9 9 10 10 10
1 2 2 1 3 4 5 8 11 10 8 6 3 4 9 9 8 6 6 6 5 6 6 5 4 4 5 5 5 5 6 6 7 7 7 7 7 8 8 9 9 10 10 11
2 3 3 1 3 3 4 8 11 12 12 9 6 5 1 5 6 5 5 6 5 6 6 5 4 4 4 5 5 5 5 6 6 7 7 7 7 8 8 9 9 10 10 10
4 4 3 2 4 2 8 14 15 12 9 11 12 7 4 5 5 5 5 5 5 7 7 6 5 5 4 4 4 4 5 5 6 6 7 7 8 8 9 9 9 10 10 10
5 5 3 1 2 6 5 2 9 12 12 10 7 7 6 4 4 5 5 5 7 8 7 6 6 5 4 4 4 4 4 5 6 7 7 7 7 8 8 9 9 9 9 9
3 4 3 3 4 7 5 5 5 6 7 12 11 7 3 3 2 2 5 6 7 8 8 7 6 6 5 4 4 4 5 6 6 6 7 7 7 7 8 8 8 7 8 9
3 3 3 3 4 4 2 6 4 3 4 7 10 8 6 5 2 4 7 8 8 8 7 7 6 6 5 4 4 5 5 5 5 5 5 6 6 6 7 7 6 6 6 7
5 4 5 5 4 5 2 6 5 3 1 5 6 6 5 4 3 7 9 8 8 8 8 7 7 6 5 5 5 5 5 4 4 4 5 5 5 5 5 5 5 5 5 5
9 6 6 5 6 6 6 6 4 3 5 7 7 5 5 6 7 8 9 9 9 8 8 7 6 6 5 5 6 6 4 4 4 4 4 4 4 3 4 4 3 3 3 3
8 7 5 6 6 2 6 4 4 5 5 4 4 4 5 5 6 7 8 9 9 9 8 7 7 7 6 5 6 7 6 5 5 5 4 4 3 2 2 3 2 2 2 2
6 7 4 3 5 6 7 5 4 4 4 4 4 3 3 4 5 7 8 9 9 9 9 8 8 8 7 7 6 7 7 6 6 5 5 4 4 3 4 4 3 3 3 3
3 5 5 5 3 2 5 7 7 6 5 5 3 2 2 3 4 6 7 9 9 9 9 9 9 9 9 8 7 8 8 7 6 6 5 4 3 4 4 4 4 4 3 4
4 5 5 5 4 5 4 6 6 6 5 4 2 2 2 3 4 5 6 7 8 9 9 9 9 9 9 9 8 8 7 7 7 6 5 4 3 3 4 4 3 4 3 4
Wind_Direction
173 179 189 193 200 205 187 199 205 205 171 188 212 227 238 213 192 226 246 255 252 225 113 72 46 27 14 7 356 335 320 303 262 228 226 219 211 209 209 214 223 229 235 234
164 201 196 196 202 230 246 204 207 170 138 171 214 232 233 231 215 219 239 260 282 23 87 83 77 61 41 29 14 351 340 328 314 283 252 240 238 225 218 213 215 220 226 230
175 189 195 199 199 209 235 229 199 148 120 193 267 254 228 218 212 198 248 264 281 76 90 92 82 79 65 43 18 354 345 331 321 320 315 306 291 276 249 231 220 217 219 223
191 185 189 193 198 194 208 235 207 133 136 200 196 249 213 185 186 198 204 199 162 121 96 87 70 61 71 63 24 349 333 320 316 320 309 290 272 262 254 247 237 225 215 215
163 186 188 191 192 193 178 137 105 130 190 247 190 229 227 152 180 185 181 161 134 120 110 109 96 70 70 63 24 343 326 320 330 331 316 299 283 276 279 279 266 251 233 219
79 47 94 185 163 139 117 102 86 71 231 247 216 214 229 187 183 167 159 146 143 142 145 141 120 97 75 54 20 344 329 331 340 336 325 307 293 292 296 292 284 276 263 243
90 56 27 42 118 133 159 138 142 174 206 235 200 210 258 173 159 154 152 150 144 148 145 108 80 50 46 35 9 348 350 348 350 344 333 322 312 301 290 286 283 283 280 271
141 149 104 48 152 170 194 196 182 186 194 193 170 216 229 105 123 132 135 132 147 160 118 101 82 50 36 25 11 1 358 351 354 348 337 325 319 309 300 300 298 289 283 279
144 128 97 66 16 150 176 219 346 322 285 165 199 186 104 109 120 132 143 161 175 147 117 105 82 59 36 21 14 5 2 358 358 350 339 334 334 328 320 314 309 304 300 299
126 125 137 119 99 40 1 185 156 181 235 241 192 183 186 174 174 171 173 177 160 134 113 91 73 58 41 28 19 18 13 3 355 348 342 341 337 338 332 325 324 325 325 327
115 122 140 162 191 176 163 177 207 218 265 268 234 185 171 168 168 171 169 152 133 113 95 79 66 55 47 36 30 24 11 3 356 348 344 351 353 350 348 349 348 347 345 346
105 119 131 142 120 263 206 193 190 193 233 228 262 331 68 135 138 138 133 129 125 112 99 91 81 63 54 41 31 21 11 4 356 350 353 1 1 359 1 359 358 1 4 8
128 123 128 141 189 213 227 219 212 200 183 223 227 155 88 109 119 133 143 139 130 124 110 88 73 72 61 45 33 21 15 6 356 357 6 10 9 8 7 5 9 14 18 22
59 156 161 169 154 163 190 200 195 172 188 211 225 156 176 156 163 164 149 129 116 121 115 95 66 68 64 51 36 23 16 9 3 11 20 17 15 14 13 15 21 25 28 32
230 121 116 30 58 127 187 197 195 199 208 213 234 185 178 177 169 147 134 134 137 134 121 108 86 67 56 49 38 25 21 16 13 22 27 21 22 24 26 29 31 34 36 40
170 137 136 225 196 195 230 223 211 210 221 236 263 282 327 115 121 141 152 152 153 139 125 113 99 83 64 55 41 32 29 25 26 33 33 28 31 33 34 37 41 44 44 43
159 139 163 213 166 231 248 223 211 206 201 209 225 227 184 155 167 164 150 154 152 134 125 119 107 95 81 72 58 42 43 42 42 43 42 40 42 44 42 47 50 51 50 50
171 161 172 206 163 240 236 121 189 208 214 208 213 207 192 172 141 129 134 148 140 133 131 126 115 107 96 89 81 70 60 59 56 51 48 48 51 53 51 53 54 55 55 56
193 184 199 207 242 265 216 170 170 187 220 208 211 215 198 120 110 147 123 114 124 126 121 120 118 119 115 107 103 95 79 70 64 57 52 52 58 63 61 60 59 60 66 65
223 225 230 223 247 262 88 133 149 173 237 188 186 194 187 148 194 187 142 124 121 120 122 127 130 127 123 121 116 103 91 82 72 65 63 63 65 70 70 68 68 68 73 76
190 209 221 235 247 269 134 135 142 188 174 107 124 137 144 161 163 145 141 136 136 134 134 136 138 134 133 134 124 117 111 99 92 89 82 78 80 84 86 83 81 86 87 87
187 193 199 202 224 243 145 146 184 133 90 85 90 95 107 113 121 140 149 149 149 148 148 150 145 142 149 151 142 139 141 139 125 115 106 99 99 103 111 111 109 111 110 99
192 201 195 200 211 163 154 148 116 110 110 103 108 112 123 139 158 164 165 164 166 165 165 162 159 161 171 171 161 161 173 169 154 144 137 134 128 115 112 112 106 91 80 83
203 209 229 237 215 173 169 161 137 122 122 120 118 127 151 174 176 174 175 175 175 175 173 169 171 176 183 183 176 168 169 172 160 149 144 141 131 115 84 59 53 58 41 48
210 180 211 242 246 188 187 180 163 145 132 126 118 142 188 203 201 188 186 185 183 180 175 175 181 185 184 179 176 164 166 166 157 148 144 136 129 122 102 80 65 80 66 68
222 200 196 221 214 193 182 160 146 141 140 133 143 198 231 226 230 213 199 189 183 181 177 180 185 185 179 173 172 167 166 166 158 155 159 158 155 141 137 134 106 83 110 83
Height
1467 1472 1472 1471 1472 1472 1476 1482 1484 1484 1483 1490 1494 1496 1494 1493 1495 1498 1499 1500 1501 1502 1503 1504 1505 1507 1509 1510 1512 1513 1515 1516 1517 1518 1519 1520 1520 1520 1521 1522 1523 1524 1525 1526
1469 1469 1467 1469 1472 1472 1473 1477 1480 1480 1484 1489 1493 1493 1491 1490 1492 1494 1496 1497 1498 1499 1500 1501 1503 1505 1506 1507 1508 1509 1510 1511 1512 1513 1514 1515 1515 1515 1516 1516 1516 1517 1518 1519
1463 1464 1465 1467 1470 1473 1474 1475 1476 1481 1488 1490 1493 1494 1489 1486 1489 1491 1492 1494 1496 1497 1499 1500 1502 1503 1504 1504 1504 1505 1505 1506 1507 1508 1508 1509 1509 1510 1511 1511 1511 1511 1512 1512
1464 1462 1464 1467 1470 1471 1476 1472 1473 1479 1492 1496 1496 1501 1482 1482 1487 1489 1491 1492 1494 1497 1498 1499 1501 1502 1502 1502 1502 1502 1502 1502 1502 1502 1503 1503 1503 1503 1504 1505 1506 1506 1506 1506
1465 1465 1465 1468 1469 1470 1474 1473 1477 1482 1491 1492 1492 1497 1483 1479 1485 1487 1489 1491 1493 1496 1497 1499 1500 1500 1500 1500 1499 1499 1499 1499 1498 1498 1498 1498 1498 1498 1499 1499 1499 1500 1500 1500
1468 1469 1470 1470 1471 1472 1475 1479 1484 1488 1492 1501 1490 1493 1484 1479 1478 1483 1486 1490 1492 1495 1497 1498 1499 1499 1499 1497 1497 1496 1495 1495 1494 1494 1493 1493 1493 1492 1492 1493 1493 1493 1493 1494
1472 1474 1474 1474 1477 1479 1478 1488 1499 1503 1505 1499 1481 1483 1478 1467 1470 1477 1483 1488 1491 1494 1495 1496 1496 1496 1496 1495 1494 1493 1492 1491 1490 1490 1489 1488 1488 1487 1487 1486 1486 1486 1486 1487
1472 1476 1478 1477 1477 1479 1479 1482 1491 1495 1497 1490 1482 1485 1475 1468 1470 1476 1482 1486 1490 1492 1493 1494 1494 1494 1493 1492 1491 1490 1489 1488 1486 1485 1485 1484 1483 1482 1481 1481 1480 1480 1480 1480
1468 1477 1480 1480 1479 1479 1481 1483 1482 1487 1479 1482 1486 1476 1478 1472 1475 1478 1482 1485 1488 1490 1491 1492 1492 1491 1490 1489 1488 1487 1485 1484 1483 1482 1481 1479 1478 1477 1476 1476 1475 1474 1473 1473
1462 1474 1479 1481 1481 1482 1482 1481 1487 1490 1488 1481 1473 1474 1478 1476 1476 1478 1480 1483 1485 1487 1488 1489 1489 1489 1488 1486 1485 1484 1482 1481 1480 1478 1477 1476 1474 1473 1472 1471 1470 1469 1468 1467
1458 1471 1479 1481 1481 1480 1484 1485 1483 1483 1482 1486 1477 1474 1457 1465 1470 1475 1478 1481 1483 1485 1486 1487 1487 1486 1485 1484 1483 1481 1480 1479 1477 1476 1474 1472 1471 1470 1468 1467 1466 1464 1463 1462
1458 1467 1475 1478 1478 1478 1477 1478 1480 1485 1485 1481 1485 1480 1459 1463 1468 1473 1476 1479 1481 1483 1484 1484 1484 1484 1483 1481 1480 1478 1477 1476 1474 1472 1471 1469 1468 1466 1465 1463 1462 1461 1459 1458
1458 1468 1477 1481 1484 1481 1478 1475 1475 1478 1481 1481 1482 1479 1464 1466 1469 1473 1476 1478 1480 1481 1482 1482 1482 1481 1480 1478 1477 1476 1474 1473 1471 1470 1468 1467 1465 1464 1462 1461 1459 1458 1457 1455
1457 1463 1469 1470 1467 1472 1475 1473 1474 1480 1486 1480 1475 1472 1468 1468 1470 1472 1474 1476 1478 1479 1479 1479 1479 1479 1477 1476 1474 1473 1471 1470 1469 1467 1466 1464 1463 1462 1460 1459 1457 1456 1455 1454
1458 1465 1468 1466 1464 1466 1468 1469 1471 1476 1475 1475 1466 1464 1465 1466 1467 1470 1472 1474 1476 1477 1477 1477 1476 1476 1475 1473 1472 1471 1469 1468 1467 1465 1464 1463 1462 1460 1459 1458 1456 1455 1454 1452
1458 1464 1467 1469 1465 1466 1468 1466 1466 1469 1470 1468 1467 1466 1461 1462 1465 1468 1470 1472 1473 1474 1474 1474 1474 1473 1472 1471 1470 1469 1468 1467 1466 1464 1463 1462 1460 1459 1458 1457 1456 1455 1453 1452
1459 1465 1470 1468 1464 1467 1469 1458 1459 1460 1459 1463 1466 1464 1460 1462 1464 1466 1467 1469 1470 1470 1471 1471 1471 1471 1470 1470 1469 1468 1467 1466 1465 1464 1463 1461 1460 1459 1458 1457 1456 1455 1454 1453
1458 1463 1470 1466 1469 1475 1453 1444 1447 1452 1454 1456 1455 1456 1457 1459 1462 1463 1464 1465 1466 1467 1468 1469 1469 1469 1469 1469 1469 1468 1467 1466 1465 1464 1463 1462 1461 1460 1459 1458 1457 1456 1455 1455
1456 1460 1464 1465 1465 1457 1445 1445 1445 1449 1449 1448 1451 1453 1455 1457 1459 1461 1461 1462 1464 1465 1466 1467 1468 1468 1468 1468 1468 1468 1467 1467 1466 1465 1464 1463 1462 1461 1461 1460 1459 1458 1458 1457
1456 1458 1462 1461 1464 1456 1445 1443 1443 1447 1447 1442 1445 1450 1453 1455 1460 1460 1459 1461 1462 1463 1464 1466 1467 1467 1468 1468 1468 1468 1468 1468 1467 1467 1466 1465 1464 1464 1463 1462 1461 1461 1460 1459
1459 1460 1462 1461 1459 1452 1443 1442 1445 1452 1447 1442 1444 1447 1451 1453 1456 1457 1458 1459 1460 1462 1463 1464 1466 1466 1467 1468 1469 1469 1469 1469 1469 1468 1468 1467 1466 1466 1465 1464 1464 1463 1462 1461
1453 1455 1456 1456 1459 1454 1442 1443 1446 1446 1444 1444 1446 1448 1450 1452 1454 1455 1456 1457 1459 1460 1462 1463 1464 1466 1467 1468 1469 1469 1470 1470 1469 1469 1469 1468 1468 1467 1467 1466 1465 1465 1464 1463
1444 1445 1445 1447 1448 1441 1440 1441 1443 1443 1445 1446 1447 1449 1450 1451 1452 1454 1455 1456 1457 1458 1460 1462 1463 1464 1466 1467 1468 1469 1470 1470 1470 1470 1469 1469 1469 1468 1468 1467 1466 1466 1465 1464
1437 1437 1438 1439 1437 1438 1439 1440 1442 1443 1444 1445 1447 1448 1449 1450 1451 1452 1453 1453 1455 1456 1458 1459 1461 1463 1464 1466 1467 1468 1468 1469 1469 1469 1469 1469 1469 1469 1468 1468 1467 1466 1465 1464
1434 1434 1436 1437 1436 1436 1437 1438 1440 1442 1443 1444 1445 1446 1447 1448 1449 1449 1450 1451 1452 1453 1455 1457 1458 1460 1462 1463 1465 1466 1467 1467 1468 1468 1468 1469 1469 1468 1468 1468 1467 1466 1465 1464
1433 1434 1435 1435 1432 1433 1434 1435 1437 1439 1441 1442 1443 1444 1445 1446 1446 1446 1447 1448 1449 1450 1451 1453 1455 1457 1459 1460 1462 1463 1464 1465 1466 1466 1467 1467 1468 1467 1467 1467 1466 1465 1464 1463